{"data":{"norad_id":58808,"epoch":"2026-05-25T03:30:30.125664Z","epoch_age_seconds":66338,"freshness":"FRESH","line1":"1 58808U 24012X   26145.14618201  .00000306  00000+0  20622-4 0  9993","line2":"2 58808  43.0001  93.0579 0000806 268.2803  91.7957 15.27583995132935","mean_motion":15.27583995,"eccentricity":8.06e-5,"inclination_deg":43.0001,"raan_deg":93.0579,"arg_perigee_deg":268.2803,"mean_anomaly_deg":91.7957,"bstar":2.0622e-5,"rev_number":13293,"period_min":94.266502183404,"perigee_km":482.48412296336,"apogee_km":483.5901442337,"semimajor_km":6861.1741335985,"source":"CELESTRAK","updated_at":"2026-05-25T13:38:18.752239Z"}}